This is the latest recevied weather packets stored in our database for station/object KD9JJA. If no packets are shown the sender has not sent any weather packets the latest 10 day(s).
| Time | Temp. | Humidity | Pressure | Rain* | Wind** | Luminosity | Snow |
|---|---|---|---|---|---|---|---|
| 1777677462 | 12.22° C | 60% | 1017.6 hPa | 0 mm | - | 27 W/m² | - |
| 1777677161 | 12.22° C | 59% | 1017.5 hPa | 0 mm | - | 27 W/m² | - |
| 1777676858 | 12.78° C | 63% | 1017.4 hPa | 0 mm | - | 30 W/m² | - |
| 1777676557 | 12.78° C | 59% | 1017.5 hPa | 0 mm | - | 31 W/m² | - |
| 1777676254 | 12.78° C | 63% | 1017.4 hPa | 0 mm | - | 39 W/m² | - |
| 1777675951 | 12.78° C | 58% | 1017.5 hPa | 0 mm | - | 22 W/m² | - |
| 1777675647 | 12.78° C | 61% | 1017.6 hPa | 0 mm | - | 23 W/m² | - |
| 1777675345 | 12.78° C | 60% | 1017.6 hPa | 0 mm | - | 26 W/m² | - |
| 1777675041 | 12.78° C | 59% | 1017.4 hPa | 0 mm | - | 29 W/m² | - |
| 1777674738 | 13.33° C | 60% | 1017.6 hPa | 0 mm | - | 37 W/m² | - |
| 1777674435 | 13.33° C | 57% | 1017.5 hPa | 0 mm | - | 56 W/m² | - |
| 1777674132 | 13.33° C | 60% | 1017.4 hPa | 0 mm | - | 45 W/m² | - |
| 1777673828 | 13.33° C | 55% | 1017.2 hPa | 0 mm | - | 62 W/m² | - |
| 1777673525 | 13.33° C | 58% | 1017.3 hPa | 0 mm | - | 39 W/m² | - |
| 1777673223 | 13.33° C | 60% | 1017.4 hPa | 0 mm | - | 43 W/m² | - |
| 1777672920 | 13.33° C | 62% | 1017.5 hPa | 0 mm | - | 49 W/m² | - |
| 1777672616 | 13.33° C | 60% | 1017.6 hPa | 0 mm | - | 159 W/m² | - |
| 1777672312 | 13.33° C | 61% | 1017.4 hPa | 0 mm | - | 45 W/m² | - |
| 1777672007 | 13.33° C | 60% | 1017.3 hPa | 0 mm | - | 41 W/m² | - |
| 1777671702 | 13.33° C | 60% | 1017.6 hPa | 0 mm | - | 53 W/m² | - |
| 1777671400 | 12.78° C | 63% | 1017.5 hPa | 0 mm | - | 56 W/m² | - |
| 1777671096 | 12.78° C | 61% | 1017.5 hPa | 0 mm | - | 59 W/m² | - |
| 1777670793 | 12.78° C | 63% | 1017.6 hPa | 0 mm | - | 60 W/m² | - |
| 1777670489 | 12.78° C | 64% | 1017.8 hPa | 0 mm | - | 35 W/m² | - |
| 1777670185 | 12.78° C | 60% | 1017.6 hPa | 0 mm | - | 42 W/m² | - |
* Rain latest hour (hover to see other rain measurements)
** Current wind speed in m/s (hover to see current wind gust speed)